Regional Weather Roundup
Issued by NWS

Home | Current Version | Previous Version | Graphics & Text | Print | Product List | Glossary On
Versions: 1 2 3 4 5 6 7 8 9 10 11 12 13 14 15 16 17 18 19 20 21 22 23 24 25 26 27 28 29 30 31 32 33 34 35 36 37 38 39 40 41 42 43 44 45 46 47 48 49 50
000
ASUS43 KOAX 041110
RWRNE

WEATHER ROUNDUP FOR NEBRASKA
NATIONAL WEATHER SERVICE OMAHA NE
500 AM CST WED MAR 04 2015

NOTES: SATELLITE DATA IS BEING USED TO AUGMENT CLOUD COVER ABOVE
       12000 FEET.
       "FAIR" INDICATES FEW OR NO CLOUDS BELOW 12,000 FEET WITH NO
       SIGNIFICANT WEATHER AND/OR OBSTRUCTIONS TO VISIBILITY.

  * THESE STATIONS DO NOT REPORT WEATHER SUCH AS RAIN...SNOW OR FOG.

NEZ001>004-019>022-054>056-041200-
NEBRASKA PANHANDLE

CITY           SKY/WX    TMP DP  RH WIND       PRES   REMARKS
SCOTTSBLUFF    MOCLDY     8   4  83 W7        30.11R WCI  -3
ALLIANCE       PTCLDY     3  -2  79 W9        30.08R WCI -12
CHADRON        PTCLDY     0  -7  72 SW7       30.14S WCI -13
KIMBALL        MOCLDY     4   0  85 NW7       30.02R WCI  -8
SIDNEY         CLOUDY     9   2  73 NW9       30.08R WCI  -4
$$

NEZ057>060-069>072-079>082-041200-
SOUTHWEST NEBRASKA

CITY           SKY/WX    TMP DP  RH WIND       PRES   REMARKS
NORTH PLATTE   PTCLDY     7   4  87 CALM      30.16R
IMPERIAL         N/A     15   9  76 NW5       30.14R WCI   8
LEXINGTON      PTCLDY    13  10  85 NW3       30.18R
MCCOOK         LGT SNOW  18  13  80 N5        30.18R WCI  11
OGALLALA       MOCLDY    14   8  75 NW6       30.14R WCI   5
$$

NEZ005>010-023>029-035>040-094-041200-
NORTH CENTRAL NEBRASKA

CITY           SKY/WX    TMP DP  RH WIND       PRES   REMARKS
VALENTINE      CLEAR      6   0  76 W9        30.13R WCI  -8
AINSWORTH      PTCLDY     8   1  71 W6        30.12R WCI  -2
BROKEN BOW     PTCLDY    10   6  84 NW5       30.15R WCI   2
O`NEILL        CLEAR      8   2  77 W6        30.16R WCI  -2
ORD            CLEAR     11   1  64 W6        30.17R WCI   1
THEDFORD       PTCLDY    11   7  85 CALM      30.13R
$$

NEZ041-046>049-061>064-073>077-083>087-041200-
SOUTH CENTRAL NEBRASKA

CITY           SKY/WX    TMP DP  RH WIND       PRES   REMARKS
GRAND ISLAND   PTCLDY    11   7  84 W8        30.21R WCI  -1
AURORA         CLOUDY    13  10  87 W6        30.20R WCI   3
HASTINGS       CLOUDY    15  11  83 NW8       30.18R WCI   4
HEBRON         MOCLDY    16  13  86 CALM      30.22R
HOLDREGE       CLOUDY    15  11  83 NW5       30.18R WCI   8
KEARNEY *      MOCLDY    12   7  79 NW5       30.19R WCI   4
YORK           CLOUDY    14  10  85 NW9       30.20R WCI   2
$$

NEZ011>018-030>034-042>045-041200-
NORTHEAST NEBRASKA

CITY           SKY/WX    TMP DP  RH WIND       PRES   REMARKS
NORFOLK        PTCLDY    13   5  70 NW6       30.18R WCI   4
ALBION         PTCLDY    11   2  68 NW3       30.18R
BLAIR          PTCLDY    16   6  64 NW6       30.18R WCI   7
COLUMBUS *     CLEAR     14   0  52 NW6       30.21R WCI   5
FREMONT        PTCLDY    16   8  71 CALM      30.20R
TEKAMAH        PTCLDY    16   6  65 CALM      30.22R
WAYNE          PTCLDY     7   2  81 CALM      30.20R
$$

NEZ050>053-065>068-078-088>093-041200-
SOUTHEAST NEBRASKA

CITY           SKY/WX    TMP DP  RH WIND       PRES   REMARKS
LINCOLN        CLEAR     12   9  87 NE3       30.23R
OMAHA EPPLEY   PTCLDY    15   7  70 N7        30.22R WCI   5
BEATRICE       MOCLDY    11   9  92 NW5       30.23R WCI   3
FALLS CITY     FLURRIES  18  11  74 N7        30.23R WCI   9
NEBRASKA CITY  CLOUDY    14  10  81 CALM      30.21R
PLATTSMOUTH    CLEAR     13  10  85 CALM      30.20R
$$

NEZ044-045-051>053-067-041200-
OMAHA AREA

CITY           SKY/WX    TMP DP  RH WIND       PRES   REMARKS
OMAHA EPPLEY   PTCLDY    15   7  70 N7        30.22R WCI   5
BLAIR          PTCLDY    16   6  64 NW6       30.18R WCI   7
FREMONT        PTCLDY    16   8  71 CALM      30.20R
MILLARD        CLEAR     16  10  76 CALM      30.21R
OFFUTT AFB     PTCLDY    13   9  85 NW2       30.20R
PLATTSMOUTH    CLEAR     13  10  85 CALM      30.20R
WAHOO          FAIR      14   9  80 NW5       30.20S WCI   6
$$


USA.gov is the U.S. government's official web portal to all federal, state and local government web resources and services.